EHI
0 1 2 2 1 0 0 0 0 0 1 0 1 2 2 2 1 2 2 2 3 5 5 3 2 1 0 1 3 2 1 2 1 0 0 0 0 0 1 2 2 1 1
0 1 2 2 1 0 0 0 0 0 1 0 0 1 2 2 2 3 3 2 3 4 5 3 2 1 1 1 2 1 1 1 1 0 0 0 0 0 1 2 2 1 2
0 1 2 2 1 0 0 0 0 0 1 1 0 0 1 2 3 3 3 3 3 4 4 3 3 1 1 2 2 1 1 0 0 0 0 0 0 0 0 1 1 1 2
0 0 1 1 1 0 0 0 0 0 0 1 1 0 0 1 1 2 2 3 3 3 3 3 2 1 1 2 2 1 1 0 0 0 0 0 0 0 0 0 0 1 2
0 0 0 0 0 0 0 0 0 0 0 1 1 0 0 0 0 1 1 1 2 2 2 3 2 1 2 2 1 1 1 0 0 0 0 0 0 0 0 0 0 1 2
0 0 0 0 0 0 0 0 0 0 0 0 0 0 0 0 0 0 0 0 0 0 1 1 2 1 2 2 1 0 0 0 0 0 0 0 0 0 0 0 0 0 1
0 0 1 1 1 1 0 0 0 0 0 0 0 0 0 0 0 0 0 0 0 0 0 1 1 1 1 1 0 0 0 0 0 0 0 0 0 0 0 0 0 0 0
0 0 1 2 2 2 1 0 0 0 0 0 0 0 0 0 0 0 0 0 0 0 0 0 0 0 0 0 0 0 0 0 0 0 0 0 0 0 0 0 0 0 0
0 0 0 1 1 2 2 1 1 0 0 0 0 0 1 1 1 0 0 0 0 0 0 0 0 0 0 0 0 0 0 0 0 0 0 0 0 0 1 0 0 0 1
0 0 0 0 0 1 1 1 1 0 0 0 1 1 2 2 1 0 0 0 0 0 0 0 0 0 0 0 0 0 0 0 0 0 0 0 1 2 2 1 0 1 2
0 0 0 0 0 0 0 0 0 0 0 0 1 2 2 1 1 0 0 0 0 0 0 0 0 0 0 0 0 0 0 0 0 0 0 1 2 3 3 1 0 1 2
0 0 0 0 0 0 0 0 0 0 0 0 1 1 1 0 0 0 0 0 0 0 0 0 0 0 0 0 0 0 0 0 0 0 0 1 2 4 4 2 0 0 1
0 0 0 0 0 0 0 0 0 0 0 0 0 0 0 0 0 0 0 0 0 0 0 0 0 0 0 0 0 0 0 0 0 0 0 0 1 3 4 2 1 0 0
0 0 0 0 0 0 0 0 0 0 0 0 0 0 0 0 0 0 0 0 0 0 0 0 0 0 0 0 0 0 0 0 0 0 0 0 1 2 3 2 1 0 0
0 0 0 0 0 0 0 0 0 0 0 0 0 0 0 0 0 0 0 0 0 0 0 0 0 0 0 0 0 0 0 0 0 0 0 0 1 2 3 2 1 0 0
0 0 0 0 0 0 0 0 0 0 0 0 0 0 0 0 0 0 0 0 0 0 0 0 0 0 0 0 0 0 0 0 0 0 0 0 1 2 2 2 1 0 0
0 0 0 0 0 0 0 0 0 0 0 0 0 0 0 0 0 0 0 0 0 0 0 0 0 0 0 0 0 0 0 0 0 0 0 0 1 1 1 2 1 0 1
0 0 0 0 0 0 0 0 0 0 0 0 0 0 0 0 0 0 0 0 0 0 0 0 0 0 0 0 0 0 0 0 0 0 0 0 0 0 1 1 1 0 1
0 0 0 0 0 0 0 0 0 0 0 0 0 0 0 0 0 0 0 0 0 0 0 0 0 0 0 0 0 0 0 0 0 0 0 0 0 0 0 0 0 0 1
0 0 0 0 0 0 0 0 0 0 0 0 0 0 0 0 0 0 0 0 0 0 0 0 0 0 0 0 0 0 0 0 0 0 0 0 0 0 0 0 0 0 0
1 0 0 0 0 0 0 0 0 0 0 0 0 0 0 0 0 0 0 0 0 0 0 0 0 0 0 0 0 0 0 0 0 0 0 0 0 0 0 0 0 0 0
1 0 0 0 0 0 0 0 0 0 0 0 0 0 0 0 0 0 0 0 0 0 0 0 0 0 0 0 0 0 0 0 0 0 0 0 0 0 0 0 0 0 0
1 0 0 0 0 0 0 0 0 0 0 0 0 0 0 0 0 0 0 0 0 0 0 0 0 0 0 0 0 0 0 0 0 0 0 0 0 0 0 0 0 0 0
0 0 0 0 0 0 0 0 0 0 0 0 0 0 0 0 0 0 0 0 0 0 0 0 0 0 0 0 0 0 0 0 0 0 0 0 0 0 0 0 0 0 0
0 0 0 0 0 0 0 0 0 0 0 0 0 0 0 0 0 0 0 0 0 0 0 0 0 0 0 0 0 0 0 0 0 0 0 0 0 0 0 0 0 0 0
0 0 0 0 0 0 0 0 0 0 0 0 0 0 0 0 0 0 0 0 0 0 0 0 0 0 0 0 0 0 0 0 0 0 0 0 0 0 0 0 0 0 0
Wind_Speed
1 2 4 4 5 5 6 6 6 7 7 7 7 8 8 8 8 8 7 8 8 8 9 9 10 10 10 10 9 9 9 9 9 9 8 8 8 8 8 8 8 5 9
4 2 5 5 5 5 5 5 6 6 7 7 7 7 7 8 8 8 7 8 8 9 9 9 10 10 10 9 9 9 9 9 9 8 8 7 7 7 8 8 8 5 9
5 3 4 6 6 6 6 6 6 7 7 7 7 7 7 7 7 7 8 8 8 9 9 9 9 9 9 9 9 9 9 9 9 9 7 3 4 8 8 8 8 8 8
7 4 4 7 7 6 6 6 7 7 7 7 7 7 7 7 7 7 8 8 8 9 9 9 9 9 9 9 9 9 9 9 9 8 4 3 3 7 8 8 7 7 7
6 4 5 8 7 7 6 6 7 7 7 7 7 7 7 7 7 8 8 8 9 9 9 8 9 9 9 9 9 9 9 9 9 7 4 3 3 7 8 8 7 7 7
5 4 5 8 7 7 6 6 6 6 7 7 7 7 7 8 8 8 8 9 9 9 9 9 9 9 9 9 9 9 9 9 8 5 4 3 3 8 9 8 8 7 7
5 4 4 8 7 7 6 6 6 6 6 7 7 7 8 8 8 9 9 9 9 9 9 8 8 9 9 9 9 9 9 9 5 4 4 3 4 9 9 9 8 8 7
6 4 4 7 7 6 6 6 6 6 6 6 6 7 7 8 8 9 8 8 8 8 8 8 8 8 8 9 9 8 8 7 6 5 3 3 7 9 9 9 9 8 8
6 4 2 2 4 5 5 5 5 5 5 6 6 6 6 7 8 8 8 8 8 8 8 7 7 7 8 8 9 9 9 9 4 3 4 3 7 9 10 9 9 8 8
4 4 3 2 2 2 2 4 4 5 5 6 6 6 6 6 7 7 6 7 7 7 8 7 7 7 7 8 8 9 9 7 4 3 2 4 8 9 9 9 9 9 9
4 3 3 3 2 2 1 2 2 4 4 5 5 6 5 3 3 4 5 6 6 7 7 6 6 6 7 8 9 9 7 3 3 2 2 6 9 10 10 9 9 9 9
3 3 3 3 3 2 2 2 1 1 2 2 2 2 2 2 2 3 4 6 7 6 6 7 7 6 5 4 6 7 3 3 3 2 3 8 9 9 9 9 9 9 9
3 3 3 3 3 2 1 2 1 1 1 2 2 2 2 2 2 2 2 2 3 5 3 5 5 3 3 3 3 3 3 3 2 2 3 8 9 9 9 9 9 8 8
4 3 3 4 4 3 2 2 2 1 1 1 1 2 2 1 1 1 2 2 2 2 3 3 3 4 4 4 4 4 4 3 2 2 3 8 8 9 9 9 8 8 8
4 3 3 4 4 3 3 2 2 1 2 2 1 2 3 2 2 2 2 2 2 2 3 3 3 4 4 4 4 4 4 4 3 3 3 7 8 8 8 8 8 8 8
4 3 3 4 4 4 3 2 2 1 2 2 2 2 3 2 3 3 2 3 3 3 3 3 4 4 3 3 4 4 4 3 4 3 3 4 7 7 7 7 7 8 8
5 4 4 5 5 4 4 3 2 2 2 2 2 2 3 3 3 3 3 3 2 3 4 4 4 4 4 4 4 3 3 3 3 3 3 2 3 6 7 7 7 7 7
6 5 5 6 5 4 3 3 2 2 2 2 2 2 3 4 4 3 3 2 2 3 3 3 3 3 3 3 3 2 3 3 3 3 3 3 3 3 5 7 6 6 6
7 6 6 5 5 4 4 3 3 2 2 2 2 2 2 3 4 4 3 2 3 3 2 3 3 3 3 3 3 3 3 3 3 3 3 3 3 3 3 4 6 6 6
7 6 6 5 5 4 3 3 2 2 2 2 2 2 2 2 3 4 3 3 3 3 2 3 3 3 2 2 3 4 3 3 3 3 2 2 2 3 3 3 3 4 6
6 6 6 5 4 4 3 2 2 1 1 1 1 2 2 3 3 4 3 3 3 3 3 3 3 3 2 2 3 3 3 3 3 2 2 2 2 2 2 3 2 2 3
7 7 6 6 5 4 3 2 2 2 1 1 1 2 2 2 3 4 4 3 3 3 3 3 3 2 1 1 2 2 2 3 3 2 2 1 2 1 2 2 2 2 2
7 8 7 6 5 4 4 3 2 2 2 1 1 0 0 1 2 3 4 3 3 3 3 2 3 3 2 0 1 3 3 2 1 2 2 1 1 1 1 1 1 2 2
7 7 7 6 5 4 5 4 4 3 2 2 2 1 0 1 2 3 3 3 3 3 3 2 3 2 3 1 0 1 2 3 3 0 2 2 1 1 0 1 1 1 1
7 7 6 6 5 5 5 5 5 3 2 1 1 1 0 0 0 1 2 3 3 2 3 2 2 2 2 2 2 1 1 1 2 3 1 2 2 1 0 0 1 1 1
6 6 6 6 5 4 5 5 5 5 4 3 2 2 1 0 0 1 2 2 2 2 2 2 2 2 2 2 2 2 2 2 2 2 2 2 1 2 1 0 0 1 1
Wind_Direction
205 208 110 98 94 86 82 79 74 71 70 72 72 73 74 76 78 80 84 93 96 94 92 90 88 87 88 93 94 94 98 102 103 101 103 108 110 111 113 113 111 110 112
165 165 117 106 100 94 87 84 78 73 71 71 75 75 75 78 82 86 88 93 95 95 94 92 91 88 88 91 93 94 97 100 98 95 95 102 109 111 114 113 114 118 117
142 140 123 113 105 98 92 91 83 77 73 69 74 76 78 80 84 90 92 94 97 96 96 93 91 90 88 89 90 92 94 95 93 89 82 78 99 109 115 118 116 115 118
141 138 129 120 111 105 98 94 87 81 76 72 72 74 78 80 88 94 95 95 95 95 93 92 89 91 89 88 89 89 89 88 87 86 73 69 88 109 115 115 114 116 116
134 139 135 125 119 113 106 100 93 87 81 77 75 77 80 82 90 97 97 97 94 93 92 90 89 90 91 89 88 87 87 83 80 75 71 69 79 105 111 107 107 111 115
139 143 137 128 123 118 111 105 101 95 88 83 83 81 81 87 90 93 99 98 94 94 94 92 91 90 89 88 88 86 85 80 74 71 74 78 90 103 104 104 106 105 110
144 147 147 137 131 124 116 109 105 102 95 89 88 83 83 87 90 92 96 96 95 94 94 92 90 90 90 90 89 87 86 82 78 74 75 78 96 106 106 103 100 97 100
146 151 152 145 140 133 125 116 108 106 102 97 95 90 87 86 88 92 96 98 98 98 97 94 91 90 92 92 88 87 84 81 81 79 75 83 102 105 104 101 99 95 95
143 147 152 147 145 142 136 125 114 109 107 101 96 93 93 90 90 93 97 101 106 106 102 96 91 90 93 91 89 89 88 83 73 74 88 88 101 101 102 101 97 95 93
135 142 144 143 137 141 133 132 126 118 111 105 98 92 89 89 92 93 96 99 106 108 103 97 92 89 90 90 89 90 88 79 64 66 76 99 104 103 101 99 97 94 91
135 149 144 143 148 151 143 131 115 113 105 101 92 89 82 64 69 85 94 100 101 102 98 92 87 86 86 87 88 85 78 67 62 62 69 99 106 103 101 100 97 93 89
153 155 149 146 142 147 141 99 62 74 82 75 74 80 73 68 69 82 83 92 90 85 87 84 77 76 75 73 80 80 69 65 62 64 88 101 106 104 103 102 97 94 90
159 149 146 146 137 137 122 117 88 72 71 67 75 94 91 69 64 55 56 63 64 68 64 67 61 63 73 80 84 84 77 68 59 58 92 106 109 107 102 99 98 97 93
143 149 146 141 132 136 119 113 109 100 92 87 86 95 101 90 77 75 69 63 65 67 72 68 70 72 75 79 86 86 81 76 64 61 80 97 104 106 103 98 96 96 92
137 134 134 139 135 129 112 109 103 96 108 113 96 88 98 99 91 85 80 77 75 73 77 71 73 75 75 74 82 86 84 79 73 63 63 81 89 100 104 102 100 98 93
155 148 130 129 133 124 116 111 105 99 101 98 93 91 96 106 102 95 83 80 78 80 83 86 84 82 78 79 79 83 88 86 78 72 58 65 75 85 94 98 96 97 95
160 146 133 131 121 123 123 119 105 101 98 90 90 96 99 101 102 102 97 87 88 91 88 86 79 77 77 76 74 76 85 88 88 78 65 51 55 70 81 85 84 89 91
152 145 142 132 127 127 122 115 106 95 94 91 88 93 103 104 107 103 100 95 94 91 91 94 87 81 71 71 69 64 68 77 86 85 69 59 52 56 65 75 74 79 81
153 148 140 134 137 137 126 114 107 92 85 86 85 87 100 106 112 111 109 104 97 90 88 103 92 99 94 79 75 66 57 63 72 85 77 69 65 65 58 66 70 71 72
151 145 137 133 136 132 117 99 87 74 66 71 83 96 106 108 112 113 112 108 106 98 84 91 96 88 99 101 88 67 45 47 60 76 85 74 72 75 67 58 51 57 65
147 143 143 140 143 133 123 121 124 122 102 64 84 100 102 115 120 120 118 112 114 114 119 117 106 90 74 86 82 54 22 27 43 47 58 71 69 75 78 73 62 51 48
159 161 155 154 156 154 153 158 154 149 149 134 81 84 98 115 126 133 132 135 133 121 113 113 112 102 91 89 111 98 40 1 0 19 30 69 72 73 85 91 80 74 59
163 165 163 162 157 157 148 119 96 74 57 50 49 63 150 131 128 135 143 143 145 140 144 144 139 136 149 347 116 135 140 190 297 338 356 18 40 70 71 95 96 92 86
173 165 159 161 157 154 145 139 141 145 169 200 195 197 212 129 129 139 145 148 150 148 155 169 155 156 149 166 241 140 157 155 152 209 328 334 351 71 86 105 111 115 109
166 162 161 161 159 157 153 154 149 149 174 175 159 152 144 353 133 143 142 144 150 156 167 169 156 157 159 165 174 157 125 113 132 143 204 299 330 319 308 165 142 125 128
159 155 156 158 165 164 156 155 155 158 159 148 158 174 183 191 253 201 154 144 152 156 171 175 169 169 176 171 172 168 165 162 174 153 165 205 252 292 315 335 160 169 165